FW3073 Weather Reports


Display with metric or nautical units.
time (UTC)temp
F
wind
direction
speed
MPH
gust
MPH
rain 1hr
in
rain 24hr
in
rain mn
in
humidity
%
barometer
mb
20260906115003 54 343 2.0 9.0 0.03 0.97 0.52 99 1007.3
20260906114213 54 299 2.0 8.0 0.02 0.96 0.51 99 1007.0
20260906113003 54 141 2.0 6.0 0.03 0.97 0.51 99 1007.0
20260906112213 54 198 1.0 8.0 0.04 0.97 0.51 99 1007.3
20260906111003 53 306 2.0 9.0 0.05 0.96 0.50 99 1007.3
20260906110003 53 320 2.0 7.0 0.06 0.96 0.50 99 1007.0
20260906105003 53 330 2.0 6.0 0.07 0.95 0.49 99 1007.0
20260906104003 53 279 2.0 8.0 0.07 0.94 0.48 99 1007.0
20260906103003 53 353 3.0 10.0 0.08 0.94 0.48 99 1007.0
20260906102003 53 15 2.0 8.0 0.08 0.94 0.47 99 1007.0
20260906101003 53 358 2.0 11.0 0.07 0.92 0.45 99 1006.6
20260906100213 53 350 2.0 6.0 0.07 0.91 0.44 99 1006.6
20260906095003 53 318 2.0 9.0 0.07 0.89 0.42 99 1006.6
20260906094004 53 312 2.0 6.0 0.07 0.88 0.41 99 1006.6
20260906093003 53 297 2.0 9.0 0.07 0.87 0.40 99 1006.6
20260906092003 53 208 3.0 8.0 0.06 0.86 0.39 99 1007.0
20260906091003 53 314 2.0 8.0 0.06 0.85 0.38 99 1006.6
20260906090214 53 10 2.0 8.0 0.05 0.84 0.37 98 1007.0
20260906085003 53 348 2.0 8.0 0.04 0.82 0.35 98 1007.0
20260906084214 54 75 2.0 8.0 0.04 0.81 0.34 98 1007.0
20260906083003 54 331 2.0 10.0 0.04 0.81 0.33 98 1006.6
20260906082003 54 24 3.0 10.0 0.05 0.81 0.33 98 1006.6
20260906081003 54 289 3.0 13.0 0.05 0.80 0.32 98 1006.6
20260906080004 54 330 2.0 9.0 0.05 0.81 0.32 98 1006.6
20260906075004 54 355 2.0 9.0 0.04 0.82 0.31 99 1006.6
20260906074003 54 341 2.0 7.0 0.03 0.82 0.30 99 1006.3
20260906073003 54 300 2.0 6.0 0.03 0.81 0.29 99 1006.6
20260906072003 54 322 2.0 4.0 0.02 0.81 0.28 98 1006.3
20260906071003 54 104 2.0 7.0 0.01 0.81 0.27 98 1006.6
20260906070003 54 348 2.0 9.0 0.01 0.81 0.27 98 1006.6
20260906065003 54 110 1.0 6.0 0.02 0.82 0.27 98 1006.6
20260906064003 54 65 2.0 7.0 0.02 0.83 0.27 98 1006.3
20260906063003 54 353 1.0 7.0 0.02 0.82 0.26 98 1006.6
20260906062003 54 293 2.0 7.0 0.03 0.82 0.26 98 1006.6
20260906061003 54 38 2.0 7.0 0.05 0.82 0.26 99 1006.3
20260906060213 55 359 2.0 10.0 0.06 0.82 0.26 99 1006.6
20260906055003 54 148 2.0 6.0 0.06 0.81 0.25 99 1006.6
20260906054003 54 58 2.0 6.0 0.08 0.81 0.25 99 1006.6
20260906053003 54 341 2.0 8.0 0.08 0.80 0.24 99 1006.3
20260906052004 54 105 2.0 6.0 0.09 0.80 0.23 99 1007.0
20260906051213 54 141 2.0 8.0 0.09 0.79 0.22 98 1006.6
20260906050213 54 45 2.0 6.0 0.08 0.77 0.20 98 1007.0
20260906045003 55 136 2.0 6.0 0.08 0.76 0.19 98 1007.0
20260906044003 55 116 1.0 7.0 0.08 0.74 0.17 99 1007.0
20260906043003 55 296 1.0 7.0 0.08 0.73 0.16 98 1007.0
20260906042003 55 41 1.0 10.0 0.07 0.71 0.14 98 1007.0
20260906041003 55 112 2.0 7.0 0.11 0.70 0.13 98 1007.0
20260906040214 55 295 2.0 7.0 0.12 0.69 0.12 98 1007.0
20260906035003 55 321 2.0 7.0 0.13 0.68 0.11 98 1007.0
20260906034003 55 185 2.0 11.0 0.12 0.67 0.10 98 1007.0
20260906033003 55 93 2.0 8.0 0.11 0.66 0.08 98 1007.3
20260906032003 55 73 2.0 11.0 0.10 0.65 0.07 98 1007.0
20260906031003 55 1 2.0 11.0 0.06 0.60 0.02 98 1007.0
20260906030004 55 68 2.0 7.0 0.04 0.58 0.00 97 1007.3
20260906025214 55 67 1.0 8.0 0.02 0.56 0.56 97 1007.3
20260906024003 55 57 2.0 7.0 0.01 0.55 0.55 97 1007.3
20260906023003 55 306 2.0 8.0 0.01 0.55 0.55 97 1007.7
20260906022003 55 350 3.0 11.0 0.01 0.55 0.55 96 1007.3
20260906021003 55 24 2.0 8.0 0.00 0.54 0.54 96 1007.3
20260906020003 55 342 2.0 11.0 0.00 0.54 0.54 96 1007.7
20260906015004 55 48 2.0 13.0 0.00 0.54 0.54 96 1007.7
20260906014003 55 92 2.0 7.0 0.01 0.54 0.54 96 1008.0
20260906013213 55 32 2.0 10.0 0.01 0.54 0.54 96 1007.7
20260906012003 55 96 2.0 10.0 0.01 0.54 0.54 96 1008.0
20260906011213 55 349 2.0 8.0 0.01 0.54 0.54 96 1008.0
20260906010003 55 75 2.0 8.0 0.01 0.54 0.54 97 1008.0
20260906005004 55 23 2.0 10.0 0.01 0.55 0.54 97 1008.0
20260906004003 55 58 2.0 8.0 0.00 0.55 0.53 97 1008.0
20260906003213 55 54 2.0 14.0 0.00 0.56 0.53 97 1008.0
20260906002003 55 97 2.0 8.0 0.01 0.56 0.53 97 1008.4
20260906001003 55 351 2.0 11.0 0.02 0.56 0.53 97 1008.0
20260906000213 56 73 3.0 11.0 0.02 0.56 0.53 97 1008.0
20260905235003 56 239 3.0 10.0 0.04 0.56 0.53 97 1008.0
20260905234003 56 114 3.0 10.0 0.08 0.56 0.53 98 1008.0
20260905233003 55 113 2.0 9.0 0.10 0.56 0.53 98 1008.0
20260905232003 55 156 2.0 6.0 0.14 0.55 0.52 98 1007.7
20260905231003 55 139 2.0 6.0 0.18 0.54 0.51 98 1008.0
20260905230003 55 69 2.0 11.0 0.20 0.55 0.51 98 1008.0
20260905225003 56 52 1.0 4.0 0.21 0.54 0.49 98 1008.0
20260905224003 56 91 2.0 9.0 0.19 0.51 0.45 98 1008.0
20260905223214 56 69 2.0 8.0 0.21 0.50 0.44 98 1007.7
20260905222003 56 97 1.0 4.0 0.17 0.44 0.38 97 1008.0
20260905221003 56 104 1.0 9.0 0.13 0.39 0.33 97 1008.0
20260905220003 56 73 1.0 8.0 0.11 0.38 0.31 97 1007.7
20260905215003 56 298 1.0 8.0 0.08 0.35 0.28 97 1008.0
20260905214214 56 81 1.0 7.0 0.06 0.33 0.26 96 1007.7
20260905213003 57 63 2.0 9.0 0.02 0.29 0.22 95 1007.7
20260905212003 57 28 2.0 9.0 0.01 0.28 0.21 94 1007.7
20260905211003 58 55 1.0 8.0 0.00 0.27 0.20 93 1007.7
20260905210003 58 39 2.0 13.0 0.00 0.27 0.20 90 1007.3
20260905205003 58 75 3.0 11.0 0.01 0.27 0.20 89 1007.3
20260905204004 58 50 2.0 13.0 0.01 0.27 0.20 91 1007.0
20260905203003 58 65 2.0 8.0 0.01 0.27 0.20 93 1007.0
20260905202213 57 52 2.0 11.0 0.02 0.27 0.20 92 1007.3
20260905201213 57 71 3.0 13.0 0.02 0.27 0.20 91 1007.0
20260905200004 58 70 2.0 13.0 0.03 0.27 0.20 92 1007.0
20260905195213 58 62 2.0 8.0 0.03 0.27 0.20 94 1006.6
20260905194003 58 40 2.0 9.0 0.02 0.26 0.19 93 1007.0
20260905193003 58 60 3.0 14.0 0.02 0.26 0.19 92 1006.6
20260905192003 59 42 2.0 10.0 0.02 0.25 0.18 92 1006.6
20260905191003 59 63 3.0 14.0 0.02 0.25 0.18 92 1007.0
20260905190003 59 49 2.0 16.0 0.01 0.24 0.17 91 1006.6
20260905185003 59 40 3.0 13.0 0.01 0.24 0.17 91 1006.6
20260905184003 59 71 3.0 14.0 0.01 0.24 0.17 90 1006.6
20260905183003 59 57 2.0 10.0 0.01 0.24 0.17 91 1006.6
20260905182003 59 57 3.0 17.0 0.00 0.23 0.16 88 1006.6
20260905181215 60 73 2.0 8.0 0.00 0.23 0.16 90 1006.6
20260905180003 60 65 2.0 7.0 0.00 0.23 0.16 89 1006.6
20260905175212 61 64 2.0 18.0 0.00 0.23 0.16 85 1006.6
20260905174003 60 48 3.0 13.0 0.01 0.23 0.16 86 1006.3
20260905173004 61 31 3.0 14.0 0.01 0.23 0.16 85 1006.6
20260905172003 62 47 3.0 9.0 0.01 0.23 0.16 84 1006.3
20260905171003 62 75 4.0 22.0 0.01 0.23 0.16 83 1006.3
20260905170003 61 56 4.0 14.0 0.02 0.23 0.16 86 1006.0
20260905165003 59 58 3.0 15.0 0.02 0.23 0.16 93 1006.0
20260905164003 59 59 2.0 8.0 0.01 0.22 0.15 94 1006.0
20260905163003 59 54 2.0 9.0 0.01 0.22 0.15 94 1006.0
20260905162003 59 79 2.0 9.0 0.01 0.22 0.15 95 1006.0
20260905161214 59 41 2.0 7.0 0.01 0.22 0.15 93 1006.0
20260905160004 59 61 3.0 13.0 0.00 0.21 0.14 91 1006.0
20260905155003 60 74 3.0 11.0 0.00 0.21 0.14 89 1006.0
20260905154003 60 68 4.0 14.0 0.00 0.21 0.14 87 1006.0
20260905153003 61 53 2.0 13.0 0.00 0.21 0.14 86 1006.0
20260905152004 60 65 4.0 17.0 0.00 0.21 0.14 89 1005.6
20260905151003 60 67 3.0 11.0 0.00 0.21 0.14 89 1005.6
20260905150003 60 72 3.0 11.0 0.00 0.22 0.14 89 1005.6
20260905145003 59 64 3.0 17.0 0.00 0.22 0.14 90 1005.6
20260905144003 59 60 3.0 13.0 0.00 0.22 0.14 91 1005.6
20260905143003 59 54 2.0 11.0 0.00 0.22 0.14 93 1005.6
20260905142003 59 52 2.0 10.0 0.00 0.22 0.14 94 1005.3
20260905141003 59 87 2.0 8.0 0.00 0.22 0.14 94 1005.3
20260905140213 58 56 2.0 10.0 0.00 0.22 0.14 94 1005.3
20260905135003 58 49 2.0 14.0 0.00 0.22 0.14 93 1005.3
20260905134003 58 80 3.0 11.0 0.00 0.23 0.14 93 1005.3
20260905133003 58 66 4.0 9.0 0.00 0.23 0.14 92 1005.3
20260905132003 58 52 2.0 14.0 0.00 0.23 0.14 94 1004.9
20260905131003 58 65 3.0 18.0 0.01 0.23 0.14 94 1004.9
20260905130003 58 76 2.0 9.0 0.01 0.23 0.14 95 1004.9
20260905125003 58 77 3.0 14.0 0.01 0.24 0.14 95 1004.6
20260905124003 58 74 2.0 9.0 0.01 0.24 0.14 95 1004.6
20260905123003 58 57 2.0 10.0 0.02 0.24 0.14 96 1004.9
20260905122003 58 37 2.0 15.0 0.02 0.24 0.14 97 1004.6
20260905121004 57 63 3.0 9.0 0.01 0.23 0.13 97 1004.9